This is the latest recevied weather packets stored in our database for station/object IK1PCD-11. If no packets are shown the sender has not sent any weather packets the latest 10 day(s).
| Time | Temp. | Humidity | Pressure | Rain* | Wind** | Luminosity | Snow |
|---|---|---|---|---|---|---|---|
| 1787982787 | 12.78° C | 100% | 1018.6 hPa | - | - | - | - |
| 1787981887 | 12.78° C | 100% | 1018.4 hPa | - | - | - | - |
| 1787979189 | 13.33° C | 100% | 1018.2 hPa | - | - | - | - |
| 1787978287 | 13.33° C | 100% | 1018 hPa | - | - | - | - |
| 1787977387 | 13.33° C | 100% | 1017.9 hPa | - | - | - | - |
| 1787976487 | 13.89° C | 100% | 1017.8 hPa | - | - | - | - |
| 1787975587 | 13.89° C | 100% | 1017.8 hPa | - | - | - | - |
| 1787974687 | 13.89° C | 100% | 1017.8 hPa | - | - | - | - |
| 1787973787 | 13.89° C | 100% | 1017.6 hPa | - | - | - | - |
| 1787972887 | 13.89° C | 100% | 1017.8 hPa | - | - | - | - |
| 1787971987 | 13.33° C | 100% | 1017.6 hPa | - | - | - | - |
| 1787971086 | 13.33° C | 100% | 1017.5 hPa | - | - | - | - |
| 1787970186 | 13.89° C | 100% | 1017.2 hPa | - | - | - | - |
| 1787969286 | 14.44° C | 100% | 1017.2 hPa | - | - | - | - |
| 1787968386 | 14.44° C | 100% | 1017.2 hPa | - | - | - | - |
| 1787967486 | 14.44° C | 100% | 1017.1 hPa | - | - | - | - |
| 1787964786 | 16.67° C | 100% | 1017.1 hPa | - | - | - | - |
| 1787963886 | 17.22° C | 100% | 1017.1 hPa | - | - | - | - |
| 1787962986 | 17.78° C | 100% | 1017.4 hPa | - | - | - | - |
| 1787962091 | 17.78° C | 100% | 1017.6 hPa | - | - | - | - |
| 1787961185 | 18.33° C | 100% | 1017.9 hPa | - | - | - | - |
| 1787960284 | 18.33° C | 100% | 1018 hPa | - | - | - | - |
| 1787959384 | 18.89° C | 100% | 1017.7 hPa | - | - | - | - |
| 1787958484 | 18.89° C | 100% | 1017.8 hPa | - | - | - | - |
| 1787957584 | 18.89° C | 100% | 1017.8 hPa | - | - | - | - |
* Rain since midnight (hover to see other rain measurements)
** Current wind speed in m/s (hover to see current wind gust speed)